Regional Weather Roundup
Issued by NWS

Home | Current Version | Previous Version | Text Only | Print | Product List | Glossary On
Versions: 1 2 3 4 5 6 7 8 9 10 11 12 13 14 15 16 17 18 19 20 21 22 23 24 25 26 27 28 29 30 31 32 33 34 35 36 37 38 39 40 41 42 43 44 45 46 47 48 49 50
000
ASUS43 KMPX 280601
RWRMN
WEATHER ROUNDUP FOR MINNESOTA
NATIONAL WEATHER SERVICE TWIN CITIES/CHANHASSEN MN
1200 AM CST SUN DEC 28 2014


NOTE: "FAIR" INDICATES FEW OR NO CLOUDS BELOW 12,000 FEET WITH NO
SIGNIFICANT WEATHER AND/OR OBSTRUCTIONS TO VISIBILITY. N/A MEANS
CURRENT SKY AND/OR WEATHER CONDITIONS ARE NOT AVAILABLE.

MNZ060>063-068>070-280700-
   Twin Cities Metro

CITY           SKY/WX    TMP DP  RH WIND       PRES   REMARKS
TWIN CITIES    MOCLDY    11   6  81 SW8       30.11F WCI  -1
6HR MIN TEMP:  11; 6HR MAX TEMP:  14;

ST PAUL        PTCLDY    11   7  84 CALM      30.13F
CRYSTAL        CLOUDY    13   8  81 S6        30.09F WCI   4
BLAINE         CLOUDY    16  10  79 SW5       30.08F WCI   9
LAKEVILLE      CLEAR      9   7  92 SW3       30.10F
EDEN PRAIRIE   PTCLDY     9   5  84 SW7       30.10F WCI  -2
6HR MIN TEMP:   8; 6HR MAX TEMP:  12;

SOUTH ST PAUL  PTCLDY    11   7  85 CALM      30.11F
LAKE ELMO      CLOUDY    10   9  92 S5        30.11S WCI   2
$$
MNZ001>005-007-008-013>017-022>024-027-028-280700-
   Northwest Minnesota

CITY           SKY/WX    TMP DP  RH WIND       PRES   REMARKS
BEMIDJI        LGT SNOW  15  12  88 NW6       30.00S WCI   6
HALLOCK        CLOUDY     5  -2  72 N15G23    30.14R WCI -13
ROSEAU         PTCLDY     0  -6  78 NW5       30.10S WCI -10
WARROAD        PTCLDY     0  -6  78 NW6       30.09R WCI -12
THIEF RVR FALL CLOUDY    10   1  67 N15       30.08R WCI  -6
CROOKSTON      FLURRIES  12   9  85 N14       30.10S WCI  -3
FOSSTON        FLURRIES  12  10  92 N10       30.04R WCI  -1
DETROIT LAKES  CLOUDY    23  21  93 NW6       30.01F WCI  16
MOORHEAD       CLOUDY    25  23  93 NW3       30.04F
PARK RAPIDS    CLOUDY    21  17  84 W5        29.98F WCI  15
MAHNOMEN       CLOUDY    19  16  90 N9        30.02R WCI   7
$$
MNZ006-009>011-018-025>026-280700-
   North Central Minnesota

CITY           SKY/WX    TMP DP  RH WIND       PRES   REMARKS
BAUDETTE       PTCLDY     0  -5  79 NW14      30.05R WCI -19
FLAG ISLAND    CLOUDY     0  -6  78 NW17      30.07S WCI -21
INTL FALLS     PTCLDY     7   1  76 NW7       30.01R WCI  -5
6HR MIN TEMP:   7; 6HR MAX TEMP:  13; 6HR PCP: TRACE;

WASKISH        CLOUDY    12   9  85 NW7       30.03R WCI   2
BIG FORK       FLURRIES  16  10  79 CALM      29.99F
LONGVILLE      FLURRIES  19  16  86 CALM      29.99F
GRAND RAPIDS   CLOUDY    18  14  86 NW6       29.98S WCI   9
CRANE LAKE     LGT SNOW  12   9  85 W3        29.99F
ORR            FLURRIES  12   9  85 W6        29.95F WCI   3
COOK           FLURRIES  12  10  92 W7        29.98S WCI   2
WALKER         FLURRIES  18  15  86 CALM      29.99F
$$
MNZ012-019>021-037-280700-
   Northeast Minnesota

CITY           SKY/WX    TMP DP  RH WIND       PRES   REMARKS
DULUTH         FLURRIES  17   9  70 NW9       29.96F WCI   6
6HR MIN TEMP:  15; 6HR MAX TEMP:  21; 6HR PCP: TRACE;

ELY            FLURRIES  12   9  85 W6        29.95S WCI   3
HIBBING        LGT SNOW  18  11  74 NW8       29.98S WCI   8
EVELETH        LGT SNOW  18  14  86 W6        29.98S WCI   9
DULUTH HARBOR  CLOUDY    23  14  68 CALM      30.04S
TWO HARBORS    CLOUDY    21  12  68 W8        29.95S WCI  12
SILVER BAY     CLOUDY    19  10  68 NW3       29.93F
GRAND MARAIS     N/A     19  10  68 W7        29.97F WCI  10
G MARAIS ARPRT CLOUDY    10   3  72 W8        29.87F WCI  -1
$$
MNZ029>031-032-039>041-046>048-054>057-064-280700-
   West Central Minnesota

CITY           SKY/WX    TMP DP  RH WIND       PRES   REMARKS
FERGUS FALLS   CLOUDY    19  16  86 SW3       30.06F
WHEATON        CLEAR     18  16  93 W7        30.06F WCI   8
MORRIS         PTCLDY    18  14  86 SW6       30.04F WCI   9
ALEXANDRIA     CLOUDY    18  14  84 SW6       30.02F WCI  10
ELBOW LAKE     FAIR      18  16  90 SW7       30.02F WCI   9
WADENA         CLOUDY    19  16  86 W7        30.00S WCI  10
GLENWOOD       PTCLDY    14  12  92 SW8       30.03F WCI   3
APPLETON       CLEAR     18  12  79 SW6       30.06F WCI   9
BENSON         PTCLDY    16  12  86 W6        30.05F WCI   7
ORTONVILLE     CLEAR     16  10  79 SW5       30.05F WCI   9
MADISON        PTCLDY    18  14  86 SW8       30.07F WCI   7
WILLMAR        FAIR      16  12  86 W6        30.07F WCI   7
$$
MNZ033>034-036-042>043-049>051-058-059-280700-
   Central Minnesota

CITY           SKY/WX    TMP DP  RH WIND       PRES   REMARKS
ST CLOUD       CLOUDY    20  13  74 SW5       30.05F WCI  13
6HR MIN TEMP:  15; 6HR MAX TEMP:  22;

SAUK CENTRE    MOCLDY    16  13  89 SW7       30.04F WCI   6
PAYNESVILLE    PTCLDY    12  11  92 S5        30.06F WCI   5
AITKIN         FLURRIES  21  16  79 CALM      29.99F
PINE RIVER     CLOUDY    19  16  86 CALM      30.03F
BRAINERD       MOCLDY    19  15  84 SW6       30.01F WCI  11
STAPLES        CLOUDY    19  16  86 SW5       30.00F WCI  13
LONG PRAIRIE   FAIR      16  14  93 SW5       30.02F WCI   9
LITTLE FALLS   MOCLDY    16  12  86 CALM      30.04S
LITCHFIELD     CLOUDY    16  14  93 CALM      30.07F
BUFFALO        CLOUDY    11   8  85 S3        30.09F
MAPLE LAKE     CLOUDY    16  13  89 SW3       30.08F
$$
MNZ037-044-045-052-053-280700-
   East Central Minnesota

CITY           SKY/WX    TMP DP  RH WIND       PRES   REMARKS
PRINCETON      MOCLDY    12   9  85 CALM      30.05F
MORA           MOCLDY    18  12  79 SW5       30.05F WCI  11
CAMBRIDGE      CLEAR     12   5  73 S3        30.05F
RUSH CITY      MOCLDY    14  10  83 SW3       30.06F
MOOSE LAKE     CLOUDY    18  12  79 SW3       30.00F
HINCKLEY       CLOUDY    19  18  93 CALM      30.03F
CLOQUET        FLURRIES  18  12  79 W8        29.98F WCI   7
MCGREGOR       CLOUDY    21  18  86 CALM      30.01F
$$
MNZ071>073-080-081-089-090-097-098-280700-
   Southwest Minnesota

CITY           SKY/WX    TMP DP  RH WIND       PRES   REMARKS
MONTEVIDEO     PTCLDY    16  12  86 W6        30.08F WCI   7
GRANITE FALLS  CLEAR     10   7  87 S7        30.10F WCI   0
CANBY          CLEAR     17  13  83 CALM      30.07F
MARSHALL       CLEAR     16   9  73 W7        30.08F WCI   6
REDWOOD FALLS  CLEAR     12   7  80 W7        30.10F WCI   1
OLIVIA         CLEAR     10   9  92 SW7       30.08F WCI   0
PIPESTONE      CLEAR      7   5  92 SW3       30.07F FOG
WINDOM         CLEAR     10   7  85 SW9       30.09F WCI  -2
WORTHINGTON    CLEAR     10 -31  13 SW7       30.09F WCI   0
JACKSON        CLEAR     10   7  85 SW6       30.11F WCI   1
TRACY          CLEAR     15  11  83 W6        30.09R WCI   6
SLAYTON        CLEAR     13  10  89 SW15      30.07F WCI  -3
$$
MNZ065>067-074>077-082>085-091>093-280700-
   South Central Minnesota

CITY           SKY/WX    TMP DP  RH WIND       PRES   REMARKS
MANKATO        CLEAR     10   3  72 S7        30.11F WCI   0
NEW ULM        CLEAR      7   3  85 SW5       30.11F WCI  -2
ST JAMES       CLEAR     12   9  85 SW9       30.12F WCI   0
FAIRMONT       CLEAR     12   7  79 W9        30.12S WCI   0
GLENCOE        CLOUDY     8   6  92 SW5       30.10S WCI  -1
FARIBAULT      CLEAR      9   5  85 S6        30.12F WCI  -1
OWATONNA       CLEAR      7   3  85 CALM      30.11F
ALBERT LEA     CLEAR     12   9  85 SW3       30.12F
$$
MNZ078>079-086>088-094>096-280700-
   Southeast Minnesota

CITY           SKY/WX    TMP DP  RH WIND       PRES   REMARKS
ROCHESTER      CLEAR      8   4  83 SW10      30.10F WCI  -6
6HR MIN TEMP:   6; 6HR MAX TEMP:  11;

RED WING       CLEAR      5   1  85 CALM      30.12F
STANTON        CLEAR      9   6  84 S5        30.11F WCI   1
DODGE CENTER   PTCLDY     7   5  92 W9        30.10S WCI  -7
WINONA         CLEAR     12   9  85 CALM      30.16F
AUSTIN         CLEAR      9   7  92 SW5       30.12F WCI   0
PRESTON        CLEAR     10   6  84 SW8       30.12S WCI  -2
$$
ABBREVIATIONS USED IN REMARKS
   TC - TEMPERATURES IN CELSIUS
  WCI - WIND CHILL INDEX
   HX - HEAT INDEX
  VSB - VISIBILITY
$$



USA.gov is the U.S. government's official web portal to all federal, state and local government web resources and services.